[[{"header":{"parameterUnit":"m.s-1","parameterCategory":1,"la1":30.2991,"la2":30.254,"lo1":-89.0895,"lo2":-89.0444,"dy":0.0017,"dx":0.0017,"nx":28,"ny":28,"refTime":"2024-07-16T03:00:00:Z","depth":0,"parameterNumber":2,"parameterNumberName":"U-component_of_WINDS"},"data":[0,0,0,0,0,0,0,0,0,0,0,0,0,0,0,0,0,0,0,0,0,0,0,0,0,0,0,0,0,0,0,0,0,0,0,0,0,0,0,0,0,0,0,0,0,0,0,0,0,0,0,0,0,0,0,0,0,0,0.1584,0.1586,0,0.1724,0.1726,0.1728,0.1778,0.1777,0.1777,0.1776,0.1925,0.193,0.1934,0,0,0,0,0,0,0,0,0,0,0,0,0,0.1363,0.1367,0.1584,0.1586,0.1587,0.1724,0.1726,0.1728,0.1778,0.1777,0.1777,0.1776,0.1924,0.1929,0.1934,0,0,0,0,0,0,0,0,0,0,0,0,0,0.1477,0.1368,0.1584,0.1629,0.1634,0.1724,0.1726,0.1728,0.1778,0.1777,0.1776,0.1776,0.1922,0.1929,0.1935,0.1992,0,0,0.1955,0.1958,0,0,0,0,0,0,0,0,0.1471,0.1485,0.162,0.1626,0.1632,0.1733,0.1703,0.1817,0.1778,0.1724,0.1776,0.1775,0.1862,0.1874,0.1902,0.1999,0.2005,0.1956,0.196,0.1963,0.1965,0,0,0,0,0,0,0,0.1463,0.1479,0.164,0.1622,0.1629,0.1643,0.1659,0.1725,0.1796,0.1728,0.1732,0.1748,0.1865,0.1895,0.1906,0.2007,0.1956,0.1962,0.1966,0.1969,0.2157,0.2158,0,0,0,0,0,0,0.1447,0.1472,0.1635,0.1644,0.1548,0.1648,0.1665,0.1701,0.1795,0.1808,0.1748,0.175,0.1884,0.1898,0.1911,0.1983,0.1963,0.1969,0.1973,0.2156,0.2157,0.2159,0,0,0,0,0,0,0.1442,0.1461,0.163,0.1559,0.1582,0.1652,0.1693,0.1704,0.1735,0.181,0.1824,0.1766,0.1884,0.1902,0.1971,0.1989,0.1972,0.1978,0.2155,0.2157,0.2158,0.2128,0,0,0,0,0,0,0.1435,0.1458,0.148,0.1559,0.1585,0.1686,0.1694,0.1708,0.1745,0.1748,0.183,0.1843,0.1885,0.1961,0.1977,0.1998,0.1983,0.2154,0.2156,0.2158,0.2128,0.2128,0.2129,0,0,0,0,0,0.1427,0.1467,0.1481,0.15,0.1613,0.1686,0.1702,0.1748,0.1746,0.1769,0.1818,0.184,0.1984,0.1967,0.1987,0.201,0.2153,0.2155,0.2157,0.2128,0.2128,0.2129,0,0,0,0,0,0,0.139,0.1478,0.1494,0.1561,0.1616,0.1695,0.1725,0.1747,0.1804,0.1805,0.1861,0.1879,0.1944,0.1984,0.1963,0.2069,0.207,0.2076,0.2041,0.2042,0.2043,0.2032,0.1989,0,0,0,0,0,0.1389,0.144,0.1515,0.1567,0.1593,0.1654,0.1688,0.1718,0.1778,0.1801,0.1855,0.1913,0.1972,0.2009,0.2067,0.2133,0.2152,0.2159,0.2159,0.2159,0.2165,0.2202,0.2206,0.2166,0.2166,0.2166,0,0,0.1389,0.1444,0.1473,0.1561,0.1606,0.1659,0.1673,0.1728,0.1768,0.1811,0.1878,0.1919,0.1988,0.2056,0.2089,0.2091,0.2179,0.2162,0.2162,0.2167,0.2205,0.2209,0.2212,0.2168,0.2167,0.2167,0,0,0.1415,0.1461,0.1509,0.1554,0.1622,0.1663,0.1674,0.1749,0.1778,0.1846,0.1879,0.1928,0.2027,0.2074,0.2111,0.2154,0.2177,0.2171,0.2175,0.2211,0.2214,0.2217,0.2232,0.2237,0.2176,0.2176,0.2176,0,0.1407,0.1485,0.1531,0.1584,0.1622,0.1661,0.171,0.1752,0.1837,0.1862,0.1863,0.1988,0.2037,0.2116,0.2126,0.2155,0.217,0.2163,0.2209,0.2213,0.2217,0.2232,0.2237,0.2175,0.2175,0.2175,0.2175,0,0.1472,0.1526,0.1556,0.1634,0.1676,0.1727,0.1781,0.1818,0.1844,0.1884,0.1954,0.2014,0.2084,0.2105,0.2132,0.2188,0.2187,0.2198,0.22,0.2218,0.2234,0.224,0.2173,0.2173,0.2174,0.2174,0,0,0.148,0.1581,0.1592,0.1628,0.1705,0.1749,0.1801,0.1868,0.1898,0.1955,0.2001,0.2083,0.2093,0.2135,0.2168,0.22,0.2229,0.2207,0.221,0.2209,0.2294,0.2286,0.2291,0.2245,0.2246,0.2247,0.2288,0,0.1517,0.161,0.1653,0.1728,0.1779,0.1815,0.1861,0.1915,0.1953,0.2003,0.2046,0.2103,0.2112,0.2138,0.2171,0.2218,0.2247,0.2216,0.2289,0.2291,0.2271,0.2299,0.2291,0.2327,0.2295,0.2296,0.2296,0,0.1572,0.1626,0.1706,0.1777,0.18,0.184,0.1904,0.195,0.2012,0.2038,0.2083,0.2114,0.2172,0.2169,0.225,0.2228,0.226,0.2288,0.229,0.23,0.2295,0.231,0.234,0.2345,0.2306,0.2305,0.2305,0,0.157,0.1663,0.1723,0.1752,0.1836,0.1864,0.19,0.196,0.1997,0.2054,0.2079,0.2142,0.2176,0.2225,0.2273,0.2266,0.2348,0.235,0.2372,0.2371,0.2389,0.2387,0.2425,0.2409,0.2409,0.2409,0.2408,0,0.1607,0.1654,0.1723,0.176,0.1814,0.1862,0.1915,0.1955,0.2008,0.2053,0.209,0.2132,0.2192,0.2243,0.228,0.2341,0.2357,0.238,0.239,0.2377,0.2374,0.24,0.2398,0.241,0.241,0.241,0.2409,0,0.1614,0.1662,0.1729,0.1802,0.1821,0.1858,0.1922,0.1959,0.1999,0.2056,0.2073,0.2135,0.2196,0.2248,0.2329,0.2355,0.2418,0.2429,0.2396,0.2402,0.2421,0.2419,0.2477,0.2487,0.2463,0.2464,0.2464,0,0.1634,0.1671,0.1747,0.178,0.1815,0.1867,0.1904,0.1953,0.1991,0.2062,0.2091,0.2154,0.2208,0.2304,0.2357,0.2419,0.2433,0.2449,0.2443,0.2428,0.2433,0.243,0.2434,0.2449,0.2449,0.2449,0.2449,0,0.1665,0.1687,0.1738,0.1798,0.1841,0.1891,0.1942,0.1967,0.2025,0.2066,0.2127,0.2168,0.225,0.2312,0.238,0.2419,0.2444,0.2451,0.2459,0.2447,0.2426,0.2438,0.2397,0.2449,0.2449,0.2449,0.2449,0.2449,0.168,0.1714,0.1773,0.1829,0.1872,0.1918,0.1957,0.2,0.2052,0.2121,0.2147,0.221,0.227,0.2362,0.2401,0.2452,0.2456,0.2468,0.2472,0.2474,0.2472,0.2417,0.2465,0.2465,0.2465,0.2465,0.2465,0,0.1713,0.1752,0.1803,0.1872,0.1916,0.1934,0.1991,0.2027,0.2081,0.2134,0.2185,0.2256,0.2316,0.2373,0.2437,0.2466,0.248,0.2482,0.248,0.2489,0.2465,0.2451,0.247,0.247,0.247,0.247,0.247,0.247,0.1735,0.1794,0.1822,0.1903,0.1942,0.2002,0.2033,0.2077,0.2119,0.2195,0.2245,0.2281,0.2336,0.2404,0.246,0.2475,0.2497,0.2496,0.2515,0.2492,0.2491,0.249,0.2477,0.25,0.25,0.2534,0.2535,0.2535]},{"header":{"parameterUnit":"m.s-1","parameterCategory":1,"la1":30.2991,"la2":30.254,"lo1":-89.0895,"lo2":-89.0444,"dy":0.0017,"dx":0.0017,"nx":28,"ny":28,"refTime":"2024-07-16T03:00:00:Z","depth":0,"parameterNumber":3,"parameterNumberName":"V-component_of_WINDS"},"data":[0,0,0,0,0,0,0,0,0,0,0,0,0,0,0,0,0,0,0,0,0,0,0,0,0,0,0,0,0,0,0,0,0,0,0,0,0,0,0,0,0,0,0,0,0,0,0,0,0,0,0,0,0,0,0,0,0,0,2.6962,2.6962,0,2.6965,2.6965,2.6965,2.697,2.697,2.6971,2.6971,2.6971,2.6971,2.6971,0,0,0,0,0,0,0,0,0,0,0,0,0,2.6959,2.6959,2.6962,2.6962,2.6962,2.6965,2.6965,2.6965,2.697,2.697,2.6971,2.6971,2.6971,2.6971,2.6971,0,0,0,0,0,0,0,0,0,0,0,0,0,2.6961,2.6959,2.6962,2.6965,2.6966,2.6965,2.6965,2.6965,2.697,2.697,2.6971,2.6971,2.6971,2.6971,2.6971,2.6967,0,0,2.6971,2.697,0,0,0,0,0,0,0,0,2.6961,2.6961,2.6965,2.6965,2.6965,2.6967,2.6964,2.6965,2.697,2.6968,2.6971,2.6971,2.697,2.697,2.697,2.6967,2.6967,2.6971,2.697,2.697,2.697,0,0,0,0,0,0,0,2.696,2.6961,2.6963,2.6965,2.6965,2.6966,2.6966,2.6964,2.6968,2.6969,2.6969,2.6969,2.697,2.697,2.697,2.6967,2.6971,2.697,2.697,2.697,2.6957,2.6957,0,0,0,0,0,0,2.696,2.6961,2.6963,2.6963,2.6963,2.6965,2.6966,2.6967,2.6968,2.6968,2.6969,2.697,2.697,2.697,2.697,2.6963,2.697,2.697,2.697,2.6957,2.6957,2.6957,0,0,0,0,0,0,2.696,2.696,2.6963,2.6962,2.6962,2.6965,2.6966,2.6967,2.6967,2.6968,2.6969,2.6969,2.697,2.697,2.6967,2.6963,2.697,2.697,2.6958,2.6957,2.6957,2.695,0,0,0,0,0,0,2.696,2.696,2.696,2.6962,2.6962,2.6961,2.6966,2.6966,2.6967,2.6967,2.6968,2.6968,2.697,2.6967,2.6967,2.6963,2.697,2.6958,2.6958,2.6957,2.6951,2.695,2.6949,0,0,0,0,0,2.696,2.6958,2.696,2.696,2.6962,2.6961,2.6961,2.6964,2.6966,2.6965,2.6966,2.6968,2.6964,2.6967,2.6966,2.6963,2.6958,2.6958,2.6957,2.6952,2.695,2.6949,0,0,0,0,0,0,2.6955,2.6958,2.696,2.6959,2.696,2.6962,2.696,2.6963,2.6962,2.6963,2.6965,2.6965,2.6961,2.6962,2.6965,2.6957,2.6961,2.6961,2.6957,2.6956,2.6955,2.6955,2.697,0,0,0,0,0,2.6954,2.6954,2.6956,2.6955,2.6955,2.6957,2.6957,2.6959,2.696,2.696,2.6961,2.696,2.6958,2.6957,2.6956,2.6951,2.695,2.6948,2.6947,2.6946,2.6945,2.6941,2.6939,2.6955,2.6955,2.6955,0,0,2.6951,2.6953,2.6953,2.6954,2.6955,2.6953,2.6958,2.6957,2.6955,2.6959,2.6956,2.6957,2.6956,2.6952,2.695,2.6952,2.6941,2.6945,2.6945,2.6944,2.694,2.6938,2.6937,2.6954,2.6955,2.6955,0,0,2.6946,2.6948,2.6946,2.6946,2.6947,2.6948,2.6948,2.6949,2.695,2.6947,2.6949,2.6947,2.6944,2.6943,2.6942,2.6934,2.6936,2.6933,2.6928,2.6923,2.6922,2.6921,2.6916,2.6915,2.6933,2.6933,2.6933,0,2.6942,2.6941,2.6945,2.6943,2.6942,2.6946,2.6943,2.6943,2.6943,2.6942,2.6945,2.694,2.694,2.6934,2.6932,2.6932,2.693,2.6933,2.6922,2.6921,2.692,2.6915,2.6914,2.6932,2.6932,2.6932,2.6932,0,2.6936,2.6935,2.6933,2.6933,2.6933,2.6931,2.6932,2.6931,2.6932,2.6932,2.6928,2.6928,2.6926,2.6924,2.6926,2.6918,2.6919,2.6922,2.6926,2.6918,2.6914,2.6912,2.6932,2.6932,2.6932,2.6932,0,0,2.6929,2.6929,2.6929,2.6928,2.6928,2.6927,2.6923,2.6921,2.6919,2.6919,2.6915,2.6912,2.6913,2.6912,2.6914,2.691,2.69,2.6912,2.6912,2.6909,2.6889,2.6887,2.6885,2.6902,2.6901,2.6901,2.6889,0,2.6923,2.6919,2.692,2.6915,2.6913,2.6916,2.6912,2.6911,2.6911,2.6908,2.6908,2.6905,2.6908,2.6907,2.6903,2.6902,2.6896,2.6903,2.6897,2.6896,2.6896,2.6883,2.6881,2.6869,2.6887,2.6887,2.6887,0,2.6916,2.6915,2.6909,2.6908,2.6907,2.6905,2.6901,2.6899,2.6897,2.6897,2.6895,2.6896,2.6891,2.6895,2.6887,2.6892,2.6889,2.6887,2.6887,2.6886,2.6891,2.688,2.6866,2.6864,2.6885,2.6885,2.6885,0,2.691,2.6907,2.6902,2.6902,2.69,2.6898,2.6897,2.6895,2.6893,2.689,2.6888,2.6885,2.6882,2.6878,2.6878,2.6881,2.6869,2.6874,2.6867,2.6867,2.6864,2.6864,2.6848,2.6864,2.6864,2.6864,2.6864,0,2.6903,2.6899,2.6899,2.6897,2.6892,2.6893,2.6888,2.6887,2.6884,2.688,2.6882,2.6878,2.6878,2.6873,2.6872,2.6864,2.6864,2.6862,2.6862,2.6862,2.6862,2.6859,2.686,2.6864,2.6864,2.6864,2.6864,0,2.6895,2.6895,2.6891,2.6889,2.6889,2.6885,2.6883,2.6879,2.6879,2.6873,2.6872,2.687,2.6865,2.6864,2.6857,2.6856,2.6846,2.6847,2.6847,2.6847,2.684,2.684,2.6821,2.6818,2.6837,2.6837,2.6836,0,2.689,2.6887,2.6885,2.6883,2.6881,2.6878,2.6875,2.6875,2.6872,2.6868,2.6865,2.6859,2.6855,2.6845,2.6842,2.6836,2.6837,2.683,2.6836,2.6835,2.6835,2.6834,2.6833,2.6829,2.6829,2.6829,2.6828,0,2.6881,2.6881,2.6878,2.6874,2.6871,2.6868,2.6865,2.6863,2.6862,2.6858,2.6852,2.6849,2.6841,2.6834,2.6828,2.6826,2.6826,2.6827,2.6824,2.6824,2.6823,2.6822,2.6843,2.6827,2.6827,2.6827,2.6827,2.6827,2.6874,2.6871,2.6868,2.6864,2.6861,2.6858,2.6854,2.6852,2.6848,2.6842,2.6841,2.6834,2.683,2.6821,2.6818,2.6811,2.6813,2.681,2.681,2.6809,2.6807,2.6825,2.681,2.681,2.681,2.681,2.681,0,2.6864,2.6862,2.6858,2.6854,2.6849,2.6851,2.6847,2.6843,2.6837,2.6832,2.6828,2.6819,2.6812,2.6808,2.6801,2.6796,2.6796,2.6794,2.6794,2.6793,2.6807,2.6809,2.6794,2.6794,2.6794,2.6794,2.6794,2.6794,2.6859,2.6853,2.6851,2.6843,2.684,2.6834,2.6831,2.6827,2.6823,2.6814,2.6809,2.6806,2.6801,2.6793,2.6786,2.6785,2.6781,2.6779,2.6778,2.6791,2.6792,2.6794,2.6796,2.6778,2.6778,2.6764,2.6764,2.6764]}]]